UAL174 PGUM-PGSN

Flight info

Callsign UAL174
Flight time 0h 25m
Altitude 12000
Route UNZ/N0345F110 CULPS A221 WILLE SN
Aircraft B738/M-SDE2E3FGHIRWXY/LB1

Departure

Time 2026-05-08 21:36
Airport Antonio B. Won Pat International Airport (PGUM)

Arrival

Time 2026-05-08 22:02
Airport Saipan International Airport (PGSN)
Time Latitude Longitude Altitude Speed Heading
2026-05-08 20:56 13.49314 144.80797 298 ft 0 kts 332°
2026-05-08 21:24 13.49310 144.80799 299 ft 3 kts 332°
2026-05-08 21:24 13.49287 144.80812 299 ft 4 kts 332°
2026-05-08 21:25 13.49263 144.80825 300 ft 4 kts 331°
2026-05-08 21:25 13.49242 144.80840 300 ft 4 kts 301°
2026-05-08 21:25 13.49237 144.80864 300 ft 4 kts 249°
2026-05-08 21:25 13.49241 144.80873 300 ft 1 kts 241°
2026-05-08 21:29 13.49233 144.80858 299 ft 6 kts 242°
2026-05-08 21:29 13.49202 144.80798 297 ft 13 kts 242°
2026-05-08 21:30 13.49182 144.80761 299 ft 15 kts 242°
2026-05-08 21:30 13.49132 144.80665 295 ft 16 kts 242°
2026-05-08 21:30 13.49081 144.80567 296 ft 15 kts 241°
2026-05-08 21:30 13.49030 144.80473 297 ft 15 kts 241°
2026-05-08 21:31 13.48964 144.80395 295 ft 14 kts 213°
2026-05-08 21:31 13.48903 144.80320 295 ft 14 kts 237°
2026-05-08 21:31 13.48857 144.80237 294 ft 13 kts 242°
2026-05-08 21:31 13.48817 144.80152 294 ft 13 kts 245°
2026-05-08 21:32 13.48778 144.80069 294 ft 13 kts 244°
2026-05-08 21:32 13.48732 144.79969 290 ft 22 kts 245°
2026-05-08 21:32 13.48652 144.79794 288 ft 29 kts 245°
2026-05-08 21:32 13.48567 144.79607 287 ft 28 kts 245°
2026-05-08 21:33 13.48488 144.79432 285 ft 26 kts 245°
2026-05-08 21:33 13.48412 144.79268 285 ft 25 kts 244°
2026-05-08 21:33 13.48341 144.79115 284 ft 23 kts 245°
2026-05-08 21:33 13.48275 144.78969 284 ft 22 kts 245°
2026-05-08 21:34 13.48207 144.78819 286 ft 25 kts 245°
2026-05-08 21:34 13.48124 144.78638 282 ft 31 kts 244°
2026-05-08 21:34 13.48036 144.78445 280 ft 29 kts 245°
2026-05-08 21:34 13.47951 144.78260 279 ft 28 kts 245°
2026-05-08 21:35 13.47894 144.78144 277 ft 16 kts 234°
2026-05-08 21:35 13.47805 144.78161 265 ft 16 kts 117°
2026-05-08 21:35 13.47816 144.78229 265 ft 6 kts 65°
2026-05-08 21:35 13.47818 144.78234 265 ft 0 kts 65°
2026-05-08 21:36 13.47869 144.78345 266 ft 48 kts 65°
2026-05-08 21:36 13.48105 144.78863 272 ft 112 kts 65°
2026-05-08 21:36 13.48512 144.79766 380 ft 155 kts 65°
2026-05-08 21:36 13.48967 144.80786 990 ft 165 kts 66°
2026-05-08 21:37 13.49482 144.81860 1791 ft 169 kts 65°
2026-05-08 21:37 13.50023 144.82928 2673 ft 167 kts 64°
2026-05-08 21:37 13.50619 144.84038 3107 ft 192 kts 64°
2026-05-08 21:37 13.51309 144.85300 3463 ft 213 kts 64°
2026-05-08 21:38 13.52098 144.86712 3677 ft 240 kts 63°
2026-05-08 21:38 13.52958 144.88253 4342 ft 256 kts 60°
2026-05-08 21:38 13.54269 144.89484 5210 ft 264 kts 28°
2026-05-08 21:38 13.56099 144.89873 6018 ft 274 kts 11°
2026-05-08 21:39 13.58019 144.90068 6735 ft 280 kts 11°
2026-05-08 21:39 13.59981 144.90270 7415 ft 286 kts 10°
2026-05-08 21:39 13.61943 144.90489 8118 ft 289 kts 11°
2026-05-08 21:39 13.63969 144.90733 8779 ft 295 kts 11°
2026-05-08 21:40 13.66030 144.90998 9428 ft 301 kts 11°
2026-05-08 21:40 13.68132 144.91280 10045 ft 307 kts 11°
2026-05-08 21:40 13.70279 144.91577 10449 ft 320 kts 11°
2026-05-08 21:41 13.74981 144.92245 10852 ft 357 kts
2026-05-08 21:41 13.77474 144.92599 11251 ft 366 kts 10°
2026-05-08 21:41 13.79963 144.92953 11770 ft 365 kts
2026-05-08 21:41 13.82450 144.93307 11943 ft 359 kts
2026-05-08 21:42 13.84954 144.93667 12052 ft 372 kts
2026-05-08 21:42 13.87571 144.94043 12049 ft 386 kts
2026-05-08 21:42 13.90265 144.94430 12033 ft 392 kts
2026-05-08 21:42 13.92961 144.94816 12008 ft 391 kts
2026-05-08 21:43 13.95652 144.95203 12006 ft 389 kts
2026-05-08 21:43 13.98328 144.95589 12012 ft 388 kts 10°
2026-05-08 21:43 14.00953 144.96205 12021 ft 387 kts 20°
2026-05-08 21:43 14.03457 144.97225 12011 ft 387 kts 25°
2026-05-08 21:44 14.05944 144.98305 12023 ft 387 kts 24°
2026-05-08 21:44 14.08429 144.99380 12021 ft 388 kts 24°
2026-05-08 21:44 14.10922 145.00440 12013 ft 386 kts 24°
2026-05-08 21:44 14.13406 145.01482 12019 ft 385 kts 24°
2026-05-08 21:45 14.15890 145.02520 12021 ft 384 kts 23°
2026-05-08 21:45 14.18361 145.03550 12022 ft 383 kts 24°
2026-05-08 21:45 14.20827 145.04573 12028 ft 383 kts 24°
2026-05-08 21:45 14.23299 145.05599 12036 ft 383 kts 24°
2026-05-08 21:46 14.25780 145.06630 12029 ft 384 kts 23°
2026-05-08 21:46 14.28233 145.07650 12039 ft 385 kts 23°
2026-05-08 21:46 14.30727 145.08687 12053 ft 388 kts 23°
2026-05-08 21:46 14.33236 145.09731 12008 ft 389 kts 23°
2026-05-08 21:47 14.35735 145.10772 12018 ft 386 kts 23°
2026-05-08 21:47 14.38225 145.11808 12020 ft 385 kts 23°
2026-05-08 21:47 14.40700 145.12838 12022 ft 383 kts 23°
2026-05-08 21:47 14.43173 145.13866 12030 ft 382 kts 23°
2026-05-08 21:48 14.45620 145.14885 12022 ft 375 kts 24°
2026-05-08 21:48 14.48003 145.15875 12018 ft 362 kts 24°
2026-05-08 21:48 14.50299 145.16830 11930 ft 350 kts 24°
2026-05-08 21:48 14.52532 145.17760 11682 ft 341 kts 24°
2026-05-08 21:49 14.54697 145.18662 11316 ft 330 kts 24°
2026-05-08 21:49 14.56795 145.19536 10979 ft 321 kts 25°
2026-05-08 21:49 14.58846 145.20392 10695 ft 313 kts 25°
2026-05-08 21:49 14.60856 145.21232 10583 ft 310 kts 24°
2026-05-08 21:50 14.62837 145.22060 10457 ft 313 kts 25°
2026-05-08 21:50 14.64842 145.22898 10299 ft 308 kts 25°
2026-05-08 21:50 14.66808 145.23718 10175 ft 301 kts 25°
2026-05-08 21:50 14.68726 145.24518 10031 ft 294 kts 24°
2026-05-08 21:51 14.70626 145.25312 9735 ft 293 kts 26°
2026-05-08 21:51 14.72510 145.26100 9447 ft 291 kts 27°
2026-05-08 21:51 14.74387 145.26885 9165 ft 290 kts 25°
2026-05-08 21:51 14.76248 145.27663 8886 ft 288 kts 25°
2026-05-08 21:52 14.78082 145.28429 8606 ft 286 kts 26°
2026-05-08 21:52 14.79925 145.29199 8330 ft 284 kts 26°
2026-05-08 21:52 14.81736 145.29943 8076 ft 275 kts 25°
2026-05-08 21:52 14.83494 145.30652 7808 ft 267 kts 25°
2026-05-08 21:53 14.85205 145.31341 7553 ft 260 kts 25°
2026-05-08 21:53 14.86858 145.32031 7308 ft 252 kts 27°
2026-05-08 21:53 14.88462 145.32711 7069 ft 247 kts 27°
2026-05-08 21:53 14.90053 145.33388 6840 ft 247 kts 27°
2026-05-08 21:54 14.91659 145.34070 6619 ft 255 kts 27°
2026-05-08 21:54 14.93336 145.34783 6373 ft 265 kts 27°
2026-05-08 21:54 14.95048 145.35507 6090 ft 266 kts 27°
2026-05-08 21:54 14.96707 145.36280 5807 ft 261 kts 38°
2026-05-08 21:55 14.97895 145.37622 5584 ft 250 kts 62°
2026-05-08 21:55 14.98623 145.39233 5322 ft 247 kts 70°
2026-05-08 21:55 14.99245 145.40883 5050 ft 246 kts 71°
2026-05-08 21:56 15.00509 145.44194 4533 ft 250 kts 70°
2026-05-08 21:56 15.01157 145.45854 4374 ft 244 kts 70°
2026-05-08 21:56 15.01779 145.47437 4250 ft 231 kts 70°
2026-05-08 21:56 15.02375 145.48935 4161 ft 221 kts 70°
2026-05-08 21:57 15.02965 145.50378 4058 ft 213 kts 69°
2026-05-08 21:57 15.03544 145.51752 3987 ft 204 kts 70°
2026-05-08 21:57 15.04093 145.53107 3876 ft 206 kts 70°
2026-05-08 21:57 15.04635 145.54475 3644 ft 204 kts 70°
2026-05-08 21:58 15.05164 145.55817 3392 ft 198 kts 70°
2026-05-08 21:58 15.05673 145.57112 3136 ft 191 kts 70°
2026-05-08 21:58 15.06161 145.58353 2892 ft 181 kts 70°
2026-05-08 21:58 15.06626 145.59539 2660 ft 174 kts 70°
2026-05-08 21:59 15.07072 145.60673 2438 ft 165 kts 70°
2026-05-08 21:59 15.07487 145.61726 2227 ft 152 kts 70°
2026-05-08 21:59 15.07868 145.62694 2080 ft 142 kts 71°
2026-05-08 21:59 15.08248 145.63666 1875 ft 149 kts 70°
2026-05-08 22:00 15.08641 145.64670 1590 ft 149 kts 73°
2026-05-08 22:00 15.09030 145.65635 1390 ft 143 kts 69°
2026-05-08 22:00 15.09382 145.66582 1216 ft 140 kts 70°
2026-05-08 22:00 15.09749 145.67499 1077 ft 138 kts 68°
2026-05-08 22:01 15.10129 145.68428 907 ft 141 kts 69°
2026-05-08 22:01 15.10506 145.69372 737 ft 143 kts 72°
2026-05-08 22:01 15.10872 145.70324 562 ft 146 kts 73°
2026-05-08 22:01 15.11257 145.71297 369 ft 144 kts 72°
2026-05-08 22:02 15.11625 145.72226 214 ft 133 kts 71°
2026-05-08 22:02 15.11918 145.72967 214 ft 71 kts 67°
2026-05-08 22:02 15.12053 145.73305 217 ft 44 kts 67°
2026-05-08 22:02 15.12160 145.73477 219 ft 23 kts
2026-05-08 22:03 15.12240 145.73451 212 ft 12 kts 341°
2026-05-08 22:03 15.12310 145.73399 215 ft 12 kts 292°
2026-05-08 22:03 15.12290 145.73334 217 ft 12 kts 245°
2026-05-08 22:03 15.12236 145.73200 214 ft 29 kts 248°
2026-05-08 22:04 15.12147 145.72977 215 ft 36 kts 247°
2026-05-08 22:04 15.12066 145.72771 212 ft 10 kts 248°
2026-05-08 22:04 15.12044 145.72700 217 ft 11 kts 280°
2026-05-08 22:04 15.12101 145.72658 210 ft 10 kts 343°
2026-05-08 22:05 15.12110 145.72616 214 ft 7 kts 250°
2026-05-08 22:05 15.12091 145.72566 214 ft 8 kts 248°
2026-05-08 22:05 15.12068 145.72509 216 ft 9 kts 244°
2026-05-08 22:05 15.12054 145.72479 214 ft 0 kts 246°
2026-05-08 22:06 15.12049 145.72466 214 ft 6 kts 246°
2026-05-08 22:06 15.12024 145.72405 216 ft 11 kts 250°
2026-05-08 22:06 15.12002 145.72323 215 ft 11 kts 289°
2026-05-08 22:06 15.12040 145.72299 211 ft 2 kts 349°
2026-05-08 22:07 15.12055 145.72299 211 ft 2 kts 360°
2026-05-08 22:08 15.11715 145.72457 217 ft 126 kts 69°
2026-05-08 22:09 15.11591 145.72140 220 ft 135 kts 70°
2026-05-08 22:09 15.11427 145.71729 261 ft 140 kts 71°